FW0386 Weather Reports


time (UTC)temp
C
wind
direction
speed
KPH
gust
KPH
rain 1hr
cm
rain 24hr
cm
rain mn
cm
humidity
%
barometer
mb
20260503233019 7 110 0.0 0.0 0.00 0.00 0.00 78 1015.2
20260503231508 8 110 0.0 0.0 0.00 0.00 0.00 78 1015.2
20260503230019 8 110 0.0 0.0 0.00 0.00 0.00 77 1015.3
20260503224525 8 110 0.0 0.0 0.00 0.00 0.00 77 1015.4
20260503223044 8 110 0.0 0.0 0.00 0.00 0.00 76 1015.4
20260503221601 9 110 0.0 0.0 0.00 0.00 0.00 76 1015.5
20260503220026 9 110 0.0 0.0 0.00 0.00 0.00 76 1015.5
20260503214526 10 110 0.0 0.0 0.00 0.00 0.00 74 1015.6
20260503213054 10 110 0.0 0.0 0.00 0.00 0.00 74 1015.5
20260503211613 11 110 0.0 0.0 0.00 0.00 0.00 72 1015.6
20260503210020 11 110 0.0 0.0 0.00 0.00 0.00 69 1015.5
20260503204539 12 110 0.0 1.6 0.00 0.00 0.00 66 1015.6
20260503203045 13 103 0.0 6.4 0.00 0.00 0.00 64 1015.6
20260503201525 13 124 0.0 1.6 0.00 0.00 0.00 64 1015.8
20260503200033 13 124 0.0 3.2 0.00 0.00 0.00 62 1015.8
20260503194548 14 125 0.0 1.6 0.00 0.00 0.00 61 1015.8
20260503193008 15 128 0.0 3.2 0.00 0.00 0.00 59 1015.7
20260503191527 15 110 0.0 1.6 0.00 0.00 0.00 57 1015.7
20260503190036 16 124 1.6 6.4 0.00 0.00 0.00 54 1015.7
20260503184538 16 117 1.6 8.0 0.00 0.00 0.00 53 1015.7
20260503183054 17 89 1.6 11.3 0.00 0.00 0.00 50 1015.6
20260503181521 17 94 1.6 9.7 0.00 0.00 0.00 48 1015.4
20260503180018 18 93 4.8 11.3 0.00 0.00 0.00 46 1015.2
20260503174536 18 185 4.8 12.9 0.00 0.00 0.00 45 1015.3
20260503173045 20 108 4.8 16.1 0.00 0.00 0.00 44 1015.3
20260503171553 20 120 4.8 14.5 0.00 0.00 0.00 42 1015.3
20260503120108 21 103 9.7 32.2 0.00 0.00 0.00 45 1017.5
20260503081537 16 79 6.4 19.3 0.00 0.00 0.00 54 1019.7
20260503071521 14 94 3.2 9.7 0.00 0.00 0.00 62 1019.6
20260503054533 10 91 0.0 3.2 0.00 0.00 0.00 69 1019.2
20260503053051 8 94 0.0 3.2 0.00 0.00 0.00 72 1019.4
20260503051502 7 176 0.0 1.6 0.00 0.00 0.00 77 1019.4
20260503050036 5 86 0.0 0.0 0.00 0.00 0.00 83 1019.3
20260503044612 3 86 0.0 0.0 0.00 0.00 0.00 88 1019.1
20260503043011 2 86 0.0 0.0 0.00 0.00 0.00 88 1019.2
20260503041521 1 86 0.0 3.2 0.00 0.00 0.00 89 1019.4
20260503040036 1 281 0.0 0.0 0.00 0.00 0.00 89 1019.2
20260503034543 1 281 0.0 0.0 0.00 0.00 0.00 89 1019.2
20260503033111 1 281 0.0 0.0 0.00 0.00 0.00 89 1019.2
20260503031501 1 281 0.0 0.0 0.00 0.00 0.00 88 1019.0
20260503030022 2 281 0.0 1.6 0.00 0.00 0.00 87 1019.1
20260503024548 2 281 0.0 0.0 0.00 0.00 0.00 88 1018.9
20260503023101 2 281 0.0 0.0 0.00 0.00 0.00 88 1019.1
20260503021555 2 281 0.0 0.0 0.00 0.00 0.00 88 1019.1
20260503020031 2 281 0.0 0.0 0.00 0.00 0.00 88 1019.1
20260503014513 2 281 0.0 0.0 0.00 0.00 0.00 88 1019.1
20260503013045 2 281 0.0 0.0 0.00 0.00 0.00 85 1019.2
20260503011548 3 281 0.0 0.0 0.00 0.00 0.00 84 1019.1
20260503010050 3 281 0.0 0.0 0.00 0.00 0.00 85 1019.2
20260503004518 4 281 0.0 0.0 0.00 0.00 0.00 84 1019.3
20260503003027 4 281 0.0 0.0 0.00 0.00 0.00 84 1019.4
20260503001534 4 281 0.0 0.0 0.00 0.00 0.00 84 1019.5
20260503000050 5 281 0.0 0.0 0.00 0.00 0.00 82 1019.5
20260502234506 5 281 0.0 0.0 0.00 0.00 0.00 79 1019.6